| time (UTC) | temp F | wind direction | speed MPH | gust MPH | rain 1hr in | rain 24hr in | rain mn in | humidity % | barometer mb |
| 20260506204536 | 77 | 155 | 8.0 | 19.0 | 0.00 | 0.00 | 0.00 | 40 | 1010.2 |
| 20260506204016 | 76 | 188 | 7.0 | 16.0 | 0.00 | 0.00 | 0.00 | 39 | 1010.3 |
| 20260506203516 | 76 | 176 | 7.0 | 18.0 | 0.00 | 0.00 | 0.00 | 43 | 1010.3 |
| 20260506203031 | 76 | 170 | 8.0 | 18.0 | 0.00 | 0.00 | 0.00 | 41 | 1010.3 |
| 20260506202516 | 76 | 153 | 8.0 | 17.0 | 0.00 | 0.00 | 0.00 | 40 | 1010.4 |
| 20260506202015 | 75 | 162 | 5.0 | 17.0 | 0.00 | 0.00 | 0.00 | 41 | 1010.3 |
| 20260506201534 | 75 | 143 | 9.0 | 17.0 | 0.00 | 0.00 | 0.00 | 38 | 1010.6 |
| 20260506201017 | 75 | 153 | 7.0 | 17.0 | 0.00 | 0.00 | 0.00 | 40 | 1010.6 |
| 20260506200516 | 75 | 142 | 11.0 | 17.0 | 0.00 | 0.00 | 0.00 | 39 | 1010.8 |
| 20260506200041 | 75 | 158 | 4.0 | 15.0 | 0.00 | 0.00 | 0.00 | 39 | 1010.8 |
| 20260506195516 | 75 | 175 | 7.0 | 15.0 | 0.00 | 0.00 | 0.00 | 39 | 1010.9 |
| 20260506195018 | 75 | 180 | 5.0 | 15.0 | 0.00 | 0.00 | 0.00 | 38 | 1010.9 |
| 20260506194534 | 75 | 157 | 9.0 | 15.0 | 0.00 | 0.00 | 0.00 | 40 | 1010.9 |
| 20260506194016 | 75 | 182 | 9.0 | 14.0 | 0.00 | 0.00 | 0.00 | 39 | 1011.0 |
| 20260506193517 | 74 | 152 | 7.0 | 17.0 | 0.00 | 0.00 | 0.00 | 38 | 1011.0 |
| 20260506193033 | 74 | 172 | 8.0 | 17.0 | 0.00 | 0.00 | 0.00 | 39 | 1011.1 |
| 20260506192516 | 73 | 206 | 8.0 | 14.0 | 0.00 | 0.00 | 0.00 | 40 | 1011.0 |
| 20260506192016 | 74 | 183 | 9.0 | 16.0 | 0.00 | 0.00 | 0.00 | 38 | 1011.2 |
| 20260506191534 | 74 | 200 | 8.0 | 16.0 | 0.00 | 0.00 | 0.00 | 40 | 1011.3 |
| 20260506191017 | 74 | 155 | 6.0 | 14.0 | 0.00 | 0.00 | 0.00 | 39 | 1011.4 |
| 20260506190517 | 73 | 149 | 8.0 | 14.0 | 0.00 | 0.00 | 0.00 | 38 | 1011.4 |
| 20260506190033 | 73 | 196 | 7.0 | 14.0 | 0.00 | 0.00 | 0.00 | 39 | 1011.4 |
| 20260506185516 | 73 | 233 | 7.0 | 15.0 | 0.00 | 0.00 | 0.00 | 37 | 1011.5 |
| 20260506185016 | 73 | 149 | 7.0 | 15.0 | 0.00 | 0.00 | 0.00 | 38 | 1011.5 |
| 20260506184534 | 73 | 169 | 4.0 | 12.0 | 0.00 | 0.00 | 0.00 | 39 | 1011.6 |
| 20260506184020 | 72 | 184 | 6.0 | 14.0 | 0.00 | 0.00 | 0.00 | 39 | 1011.6 |
| 20260506183516 | 72 | 152 | 6.0 | 14.0 | 0.00 | 0.00 | 0.00 | 40 | 1011.7 |
| 20260506183037 | 72 | 184 | 7.0 | 14.0 | 0.00 | 0.00 | 0.00 | 38 | 1011.7 |
| 20260506182515 | 72 | 188 | 7.0 | 14.0 | 0.00 | 0.00 | 0.00 | 39 | 1011.8 |
| 20260506182016 | 72 | 178 | 5.0 | 11.0 | 0.00 | 0.00 | 0.00 | 41 | 1011.9 |
| 20260506181534 | 71 | 150 | 5.0 | 11.0 | 0.00 | 0.00 | 0.00 | 40 | 1012.0 |
| 20260506181016 | 71 | 259 | 4.0 | 9.0 | 0.00 | 0.00 | 0.00 | 41 | 1012.0 |
| 20260506180516 | 70 | 201 | 4.0 | 10.0 | 0.00 | 0.00 | 0.00 | 41 | 1012.1 |
| 20260506180043 | 69 | 160 | 5.0 | 10.0 | 0.00 | 0.00 | 0.00 | 43 | 1012.1 |
| 20260506175517 | 68 | 173 | 5.0 | 9.0 | 0.00 | 0.00 | 0.00 | 48 | 1012.2 |
| 20260506175016 | 67 | 186 | 2.0 | 8.0 | 0.00 | 0.00 | 0.00 | 55 | 1012.1 |
| 20260506174533 | 67 | 115 | 4.0 | 8.0 | 0.00 | 0.00 | 0.00 | 53 | 1012.3 |
| 20260506174016 | 67 | 109 | 2.0 | 7.0 | 0.00 | 0.00 | 0.00 | 60 | 1012.3 |
| 20260506173517 | 66 | 91 | 3.0 | 7.0 | 0.00 | 0.00 | 0.00 | 54 | 1012.5 |
| 20260506173038 | 65 | 107 | 3.0 | 7.0 | 0.00 | 0.00 | 0.00 | 57 | 1012.6 |
| 20260506172517 | 65 | 110 | 3.0 | 7.0 | 0.00 | 0.00 | 0.00 | 56 | 1012.6 |
| 20260506172016 | 65 | 121 | 2.0 | 7.0 | 0.00 | 0.00 | 0.00 | 55 | 1012.7 |
| 20260506171531 | 65 | 111 | 2.0 | 4.0 | 0.00 | 0.00 | 0.00 | 59 | 1012.7 |
| 20260506171019 | 64 | 93 | 2.0 | 4.0 | 0.00 | 0.00 | 0.00 | 54 | 1012.8 |
| 20260506170518 | 64 | 118 | 2.0 | 3.0 | 0.00 | 0.00 | 0.00 | 55 | 1012.8 |
| 20260506170036 | 64 | 0 | 0.0 | 3.0 | 0.00 | 0.00 | 0.00 | 55 | 1012.9 |
| 20260506165516 | 63 | 123 | 0.0 | 3.0 | 0.00 | 0.00 | 0.00 | 57 | 1013.0 |
| 20260506165016 | 62 | 85 | 1.0 | 4.0 | 0.00 | 0.00 | 0.00 | 57 | 1013.1 |
| 20260506164543 | 62 | 0 | 1.0 | 4.0 | 0.00 | 0.00 | 0.00 | 60 | 1013.1 |
| 20260506164016 | 62 | 331 | 2.0 | 4.0 | 0.00 | 0.00 | 0.00 | 59 | 1013.2 |
| 20260506163516 | 61 | 101 | 1.0 | 2.0 | 0.00 | 0.00 | 0.00 | 59 | 1013.3 |
| 20260506163035 | 61 | 101 | 1.0 | 2.0 | 0.00 | 0.00 | 0.00 | 61 | 1013.4 |
| 20260506162516 | 61 | 101 | 1.0 | 2.0 | 0.00 | 0.00 | 0.00 | 60 | 1013.4 |
| 20260506162015 | 60 | 101 | 0.0 | 2.0 | 0.00 | 0.00 | 0.00 | 61 | 1013.5 |
| 20260506161534 | 60 | 0 | 0.0 | 2.0 | 0.00 | 0.00 | 0.00 | 64 | 1013.6 |
| 20260506161017 | 59 | 101 | 0.0 | 3.0 | 0.00 | 0.00 | 0.00 | 65 | 1013.7 |
| 20260506160513 | 58 | 101 | 1.0 | 3.0 | 0.00 | 0.00 | 0.00 | 65 | 1013.8 |
| 20260506160032 | 58 | 100 | 1.0 | 3.0 | 0.00 | 0.00 | 0.00 | 67 | 1013.9 |
| 20260506155520 | 58 | 0 | 0.0 | 3.0 | 0.00 | 0.00 | 0.00 | 69 | 1013.9 |
| 20260506155015 | 57 | 117 | 0.0 | 3.0 | 0.00 | 0.00 | 0.00 | 70 | 1013.9 |
| 20260506154538 | 56 | 117 | 1.0 | 3.0 | 0.00 | 0.00 | 0.00 | 71 | 1013.9 |
| 20260506154015 | 56 | 106 | 0.0 | 3.0 | 0.00 | 0.00 | 0.00 | 70 | 1013.9 |
| 20260506153515 | 55 | 0 | 0.0 | 3.0 | 0.00 | 0.00 | 0.00 | 72 | 1014.0 |
| 20260506153036 | 55 | 130 | 1.0 | 3.0 | 0.00 | 0.00 | 0.00 | 71 | 1013.9 |
| 20260506152515 | 54 | 142 | 1.0 | 3.0 | 0.00 | 0.00 | 0.00 | 74 | 1013.8 |
| 20260506152013 | 54 | 0 | 1.0 | 3.0 | 0.00 | 0.00 | 0.00 | 74 | 1013.9 |
| 20260506151533 | 53 | 142 | 1.0 | 3.0 | 0.00 | 0.00 | 0.00 | 73 | 1013.9 |
| 20260506151014 | 53 | 123 | 1.0 | 3.0 | 0.00 | 0.00 | 0.00 | 75 | 1013.9 |
| 20260506150516 | 52 | 123 | 1.0 | 3.0 | 0.00 | 0.00 | 0.00 | 77 | 1014.0 |
| 20260506150033 | 52 | 108 | 1.0 | 3.0 | 0.00 | 0.00 | 0.00 | 78 | 1013.9 |
| 20260506145519 | 52 | 108 | 1.0 | 3.0 | 0.00 | 0.00 | 0.00 | 80 | 1014.0 |
| 20260506145018 | 51 | 110 | 1.0 | 3.0 | 0.00 | 0.00 | 0.00 | 81 | 1013.9 |
| 20260506144533 | 51 | 0 | 1.0 | 3.0 | 0.00 | 0.00 | 0.00 | 81 | 1013.9 |
| 20260506144016 | 50 | 105 | 1.0 | 2.0 | 0.00 | 0.00 | 0.00 | 82 | 1013.9 |
| 20260506143516 | 50 | 0 | 0.0 | 2.0 | 0.00 | 0.00 | 0.00 | 83 | 1014.0 |
| 20260506143037 | 49 | 0 | 0.0 | 2.0 | 0.00 | 0.00 | 0.00 | 84 | 1014.0 |
| 20260506142515 | 48 | 105 | 1.0 | 2.0 | 0.00 | 0.00 | 0.00 | 86 | 1014.1 |
| 20260506142015 | 48 | 105 | 0.0 | 2.0 | 0.00 | 0.00 | 0.00 | 88 | 1014.1 |
| 20260506141537 | 47 | 0 | 0.0 | 2.0 | 0.00 | 0.00 | 0.00 | 89 | 1014.0 |
| 20260506141015 | 46 | 0 | 0.0 | 2.0 | 0.00 | 0.00 | 0.00 | 88 | 1014.1 |
| 20260506140515 | 46 | 63 | 0.0 | 2.0 | 0.00 | 0.00 | 0.00 | 88 | 1014.1 |
| 20260506140039 | 46 | 63 | 1.0 | 2.0 | 0.00 | 0.00 | 0.00 | 89 | 1014.1 |
| 20260506135514 | 45 | 0 | 0.0 | 1.0 | 0.00 | 0.00 | 0.00 | 91 | 1014.1 |
| 20260506135015 | 44 | 0 | 0.0 | 2.0 | 0.00 | 0.00 | 0.00 | 91 | 1014.1 |
| 20260506134534 | 43 | 150 | 0.0 | 2.0 | 0.00 | 0.00 | 0.00 | 91 | 1014.0 |
| 20260506134017 | 43 | 150 | 0.0 | 3.0 | 0.00 | 0.00 | 0.00 | 92 | 1014.0 |
| 20260506133515 | 42 | 150 | 1.0 | 3.0 | 0.00 | 0.00 | 0.00 | 92 | 1013.9 |
| 20260506133032 | 42 | 150 | 1.0 | 3.0 | 0.00 | 0.00 | 0.00 | 92 | 1014.0 |
| 20260506132515 | 41 | 150 | 1.0 | 3.0 | 0.00 | 0.00 | 0.00 | 92 | 1013.9 |
| 20260506132016 | 41 | 150 | 1.0 | 3.0 | 0.00 | 0.00 | 0.00 | 93 | 1013.8 |
| 20260506131537 | 40 | 150 | 1.0 | 2.0 | 0.00 | 0.00 | 0.00 | 93 | 1013.7 |
| 20260506131015 | 40 | 150 | 1.0 | 2.0 | 0.00 | 0.00 | 0.00 | 93 | 1013.8 |
| 20260506130521 | 39 | 150 | 1.0 | 2.0 | 0.00 | 0.00 | 0.00 | 92 | 1013.8 |
| 20260506130032 | 39 | 150 | 0.0 | 2.0 | 0.00 | 0.00 | 0.00 | 92 | 1013.7 |
| 20260506125516 | 39 | 150 | 0.0 | 2.0 | 0.00 | 0.00 | 0.00 | 92 | 1013.7 |
| 20260506125020 | 39 | 0 | 0.0 | 2.0 | 0.00 | 0.00 | 0.00 | 92 | 1013.7 |
| 20260506124537 | 39 | 150 | 1.0 | 2.0 | 0.00 | 0.00 | 0.00 | 91 | 1013.6 |
| 20260506124016 | 39 | 0 | 0.0 | 2.0 | 0.00 | 0.00 | 0.00 | 91 | 1013.6 |
| 20260506123516 | 39 | 150 | 1.0 | 2.0 | 0.00 | 0.00 | 0.00 | 92 | 1013.5 |
| 20260506123041 | 39 | 150 | 0.0 | 2.0 | 0.00 | 0.00 | 0.00 | 92 | 1013.5 |
| 20260506122517 | 39 | 150 | 1.0 | 2.0 | 0.00 | 0.00 | 0.00 | 92 | 1013.5 |
| 20260506122015 | 39 | 150 | 0.0 | 2.0 | 0.00 | 0.00 | 0.00 | 92 | 1013.4 |
| 20260506121534 | 39 | 0 | 0.0 | 2.0 | 0.00 | 0.00 | 0.00 | 92 | 1013.4 |
| 20260506121017 | 39 | 0 | 0.0 | 0.0 | 0.00 | 0.00 | 0.00 | 90 | 1013.3 |
| 20260506120517 | 39 | 0 | 0.0 | 0.0 | 0.00 | 0.00 | 0.00 | 91 | 1013.2 |
| 20260506120059 | 39 | 0 | 0.0 | 1.0 | 0.00 | 0.00 | 0.00 | 91 | 1013.2 |
| 20260506115517 | 39 | 0 | 0.0 | 1.0 | 0.00 | 0.00 | 0.00 | 90 | 1013.1 |
| 20260506115014 | 39 | 0 | 0.0 | 2.0 | 0.00 | 0.00 | 0.00 | 90 | 1013.1 |
| 20260506114531 | 40 | 0 | 0.0 | 2.0 | 0.00 | 0.00 | 0.00 | 89 | 1013.1 |
| 20260506114016 | 41 | 0 | 0.0 | 2.0 | 0.00 | 0.00 | 0.00 | 89 | 1013.1 |
| 20260506113513 | 41 | 0 | 0.0 | 2.0 | 0.00 | 0.00 | 0.00 | 91 | 1013.0 |
| 20260506113032 | 40 | 150 | 0.0 | 2.0 | 0.00 | 0.00 | 0.00 | 90 | 1013.1 |
| 20260506112517 | 40 | 0 | 0.0 | 2.0 | 0.00 | 0.00 | 0.00 | 90 | 1013.0 |
| 20260506112015 | 40 | 0 | 1.0 | 2.0 | 0.00 | 0.00 | 0.00 | 90 | 1013.0 |
| 20260506111539 | 41 | 150 | 0.0 | 2.0 | 0.00 | 0.00 | 0.00 | 88 | 1013.1 |
| 20260506111016 | 41 | 0 | 0.0 | 2.0 | 0.00 | 0.00 | 0.00 | 89 | 1012.9 |
| 20260506110516 | 41 | 0 | 0.0 | 2.0 | 0.00 | 0.00 | 0.00 | 89 | 1012.9 |
| 20260506110034 | 41 | 150 | 0.0 | 2.0 | 0.00 | 0.00 | 0.00 | 89 | 1012.9 |
| 20260506105516 | 41 | 0 | 0.0 | 0.0 | 0.00 | 0.00 | 0.00 | 88 | 1012.8 |
| 20260506105015 | 42 | 0 | 0.0 | 1.0 | 0.00 | 0.00 | 0.00 | 88 | 1012.8 |
| 20260506104534 | 42 | 0 | 0.0 | 2.0 | 0.00 | 0.00 | 0.00 | 88 | 1012.7 |
| 20260506104016 | 42 | 0 | 0.0 | 3.0 | 0.00 | 0.00 | 0.00 | 87 | 1012.7 |
| 20260506103517 | 43 | 150 | 1.0 | 3.0 | 0.00 | 0.00 | 0.00 | 88 | 1012.7 |
| 20260506103036 | 43 | 150 | 1.0 | 3.0 | 0.00 | 0.00 | 0.00 | 90 | 1012.7 |
| 20260506102516 | 42 | 150 | 1.0 | 3.0 | 0.00 | 0.00 | 0.00 | 89 | 1012.7 |
| 20260506102017 | 42 | 150 | 1.0 | 3.0 | 0.00 | 0.00 | 0.00 | 88 | 1012.7 |
| 20260506101533 | 43 | 150 | 2.0 | 3.0 | 0.00 | 0.00 | 0.00 | 89 | 1012.8 |
| 20260506101016 | 43 | 150 | 2.0 | 3.0 | 0.00 | 0.00 | 0.00 | 89 | 1012.7 |
| 20260506100515 | 43 | 150 | 2.0 | 3.0 | 0.00 | 0.00 | 0.00 | 89 | 1012.7 |
| 20260506100034 | 42 | 150 | 1.0 | 3.0 | 0.00 | 0.00 | 0.00 | 89 | 1012.8 |
| 20260506095517 | 42 | 150 | 1.0 | 3.0 | 0.00 | 0.00 | 0.00 | 90 | 1012.7 |
| 20260506095015 | 42 | 150 | 2.0 | 3.0 | 0.00 | 0.00 | 0.00 | 90 | 1012.7 |
| 20260506094536 | 42 | 150 | 0.0 | 2.0 | 0.00 | 0.00 | 0.00 | 89 | 1012.7 |
| 20260506094015 | 42 | 0 | 0.0 | 2.0 | 0.00 | 0.00 | 0.00 | 89 | 1012.7 |
| 20260506093513 | 42 | 0 | 0.0 | 1.0 | 0.00 | 0.00 | 0.00 | 89 | 1012.6 |
| 20260506093044 | 42 | 0 | 0.0 | 1.0 | 0.00 | 0.00 | 0.00 | 89 | 1012.7 |
| 20260506092515 | 42 | 0 | 0.0 | 0.0 | 0.00 | 0.00 | 0.00 | 88 | 1012.5 |
| 20260506092015 | 42 | 0 | 0.0 | 0.0 | 0.00 | 0.00 | 0.00 | 86 | 1012.7 |
| 20260506091532 | 43 | 0 | 0.0 | 0.0 | 0.00 | 0.00 | 0.00 | 87 | 1012.6 |
| 20260506091015 | 43 | 0 | 0.0 | 1.0 | 0.00 | 0.00 | 0.00 | 87 | 1012.6 |
| 20260506090516 | 43 | 0 | 0.0 | 1.0 | 0.00 | 0.00 | 0.00 | 87 | 1012.5 |
| 20260506090032 | 44 | 0 | 0.0 | 1.0 | 0.00 | 0.00 | 0.00 | 86 | 1012.5 |
| 20260506085515 | 44 | 0 | 0.0 | 2.0 | 0.00 | 0.00 | 0.00 | 85 | 1012.5 |
| 20260506085015 | 44 | 0 | 0.0 | 2.0 | 0.00 | 0.00 | 0.00 | 86 | 1012.5 |
| 20260506084533 | 44 | 150 | 0.0 | 2.0 | 0.00 | 0.00 | 0.00 | 88 | 1012.4 |
| 20260506084015 | 43 | 150 | 0.0 | 3.0 | 0.00 | 0.00 | 0.00 | 86 | 1012.4 |
| 20260506083516 | 44 | 0 | 1.0 | 3.0 | 0.00 | 0.00 | 0.00 | 85 | 1012.4 |
| 20260506083041 | 45 | 150 | 0.0 | 2.0 | 0.00 | 0.00 | 0.00 | 84 | 1012.4 |
| 20260506082515 | 45 | 0 | 0.0 | 2.0 | 0.00 | 0.00 | 0.00 | 84 | 1012.4 |
| 20260506082014 | 46 | 150 | 0.0 | 2.0 | 0.00 | 0.00 | 0.00 | 85 | 1012.3 |
| 20260506081533 | 45 | 0 | 0.0 | 2.0 | 0.00 | 0.00 | 0.00 | 86 | 1012.3 |
| 20260506081015 | 45 | 0 | 0.0 | 2.0 | 0.00 | 0.00 | 0.00 | 85 | 1012.4 |
| 20260506080515 | 45 | 150 | 0.0 | 1.0 | 0.00 | 0.00 | 0.00 | 85 | 1012.4 |
| 20260506073514 | 46 | 0 | 0.0 | 2.0 | 0.00 | 0.00 | 0.00 | 84 | 1012.2 |
| 20260506073034 | 46 | 150 | 0.0 | 3.0 | 0.00 | 0.00 | 0.00 | 83 | 1012.2 |
| 20260506072516 | 46 | 150 | 0.0 | 3.0 | 0.00 | 0.00 | 0.00 | 83 | 1012.2 |
| 20260506072016 | 46 | 150 | 1.0 | 4.0 | 0.00 | 0.00 | 0.00 | 81 | 1012.1 |
| 20260506071537 | 48 | 144 | 0.0 | 4.0 | 0.00 | 0.00 | 0.00 | 80 | 1012.1 |
| 20260506071015 | 48 | 182 | 2.0 | 4.0 | 0.00 | 0.00 | 0.00 | 82 | 1012.0 |
| 20260506070515 | 47 | 0 | 0.0 | 3.0 | 0.00 | 0.00 | 0.00 | 81 | 1012.0 |
| 20260506062516 | 49 | 0 | 0.0 | 2.0 | 0.00 | 0.00 | 0.00 | 78 | 1011.5 |
| 20260506062017 | 50 | 164 | 0.0 | 2.0 | 0.00 | 0.00 | 0.00 | 75 | 1011.4 |
| 20260506061536 | 50 | 0 | 0.0 | 2.0 | 0.00 | 0.00 | 0.00 | 77 | 1011.4 |
| 20260506061019 | 50 | 164 | 1.0 | 2.0 | 0.00 | 0.00 | 0.00 | 76 | 1011.3 |
| 20260506060517 | 50 | 164 | 0.0 | 2.0 | 0.00 | 0.00 | 0.00 | 77 | 1011.2 |
| 20260506051016 | 54 | 157 | 1.0 | 7.0 | 0.00 | 0.00 | 0.00 | 69 | 1011.1 |
| 20260506050516 | 54 | 163 | 2.0 | 7.0 | 0.00 | 0.00 | 0.00 | 71 | 1011.1 |
| 20260506045016 | 53 | 0 | 1.0 | 3.0 | 0.00 | 0.00 | 0.00 | 72 | 1010.9 |
| 20260506044549 | 54 | 109 | 1.0 | 3.0 | 0.00 | 0.00 | 0.00 | 69 | 1010.9 |
| 20260506044016 | 55 | 109 | 0.0 | 2.0 | 0.00 | 0.00 | 0.00 | 69 | 1010.8 |
| 20260506043519 | 55 | 0 | 0.0 | 3.0 | 0.00 | 0.00 | 0.00 | 68 | 1010.8 |
| 20260506043033 | 56 | 109 | 1.0 | 3.0 | 0.00 | 0.00 | 0.00 | 66 | 1010.6 |
| 20260506042517 | 57 | 0 | 0.0 | 1.0 | 0.00 | 0.00 | 0.00 | 65 | 1010.5 |
| 20260506042015 | 58 | 0 | 0.0 | 2.0 | 0.00 | 0.00 | 0.00 | 64 | 1010.4 |
| 20260506041553 | 58 | 0 | 0.0 | 2.0 | 0.00 | 0.00 | 0.00 | 63 | 1010.3 |
| 20260506040042 | 60 | 0 | 0.0 | 3.0 | 0.00 | 0.00 | 0.00 | 60 | 1010.1 |
| 20260506035516 | 60 | 153 | 0.0 | 3.0 | 0.00 | 0.00 | 0.00 | 59 | 1010.1 |
| 20260506035016 | 60 | 153 | 1.0 | 3.0 | 0.00 | 0.00 | 0.00 | 58 | 1010.0 |
| 20260506034535 | 60 | 148 | 1.0 | 4.0 | 0.00 | 0.00 | 0.00 | 61 | 1009.9 |
| 20260506034014 | 60 | 111 | 2.0 | 4.0 | 0.00 | 0.00 | 0.00 | 61 | 1009.8 |
| 20260506033515 | 61 | 117 | 2.0 | 4.0 | 0.00 | 0.00 | 0.00 | 60 | 1009.8 |
| 20260506033035 | 61 | 126 | 1.0 | 4.0 | 0.00 | 0.00 | 0.00 | 60 | 1009.8 |
| 20260506032516 | 61 | 132 | 2.0 | 4.0 | 0.00 | 0.00 | 0.00 | 60 | 1009.7 |
| 20260506032017 | 63 | 142 | 0.0 | 3.0 | 0.00 | 0.00 | 0.00 | 58 | 1009.6 |
| 20260506031539 | 64 | 144 | 2.0 | 3.0 | 0.00 | 0.00 | 0.00 | 55 | 1009.5 |
| 20260506031016 | 65 | 144 | 2.0 | 4.0 | 0.00 | 0.00 | 0.00 | 51 | 1009.6 |
| 20260506030515 | 67 | 132 | 1.0 | 4.0 | 0.00 | 0.00 | 0.00 | 51 | 1009.5 |
| 20260506030036 | 69 | 140 | 1.0 | 4.0 | 0.00 | 0.00 | 0.00 | 46 | 1009.5 |
| 20260506025658 | 70 | 153 | 2.0 | 4.0 | 0.00 | 0.00 | 0.00 | 42 | 1009.4 |
| 20260506025016 | 72 | 161 | 1.0 | 5.0 | 0.00 | 0.00 | 0.00 | 39 | 1009.4 |
| 20260506024535 | 72 | 155 | 2.0 | 7.0 | 0.00 | 0.00 | 0.00 | 37 | 1009.3 |
| 20260506024015 | 73 | 172 | 2.0 | 8.0 | 0.00 | 0.00 | 0.00 | 37 | 1009.3 |
| 20260506023517 | 73 | 168 | 3.0 | 8.0 | 0.00 | 0.00 | 0.00 | 36 | 1009.2 |
| 20260506023038 | 74 | 193 | 4.0 | 7.0 | 0.00 | 0.00 | 0.00 | 36 | 1009.1 |
| 20260506022515 | 74 | 202 | 2.0 | 5.0 | 0.00 | 0.00 | 0.00 | 36 | 1009.1 |
| 20260506022014 | 75 | 173 | 1.0 | 3.0 | 0.00 | 0.00 | 0.00 | 43 | 1009.1 |
| 20260506021535 | 76 | 173 | 1.0 | 3.0 | 0.00 | 0.00 | 0.00 | 34 | 1009.0 |
| 20260506021016 | 77 | 166 | 0.0 | 3.0 | 0.00 | 0.00 | 0.00 | 33 | 1008.9 |
| 20260506020516 | 77 | 189 | 0.0 | 2.0 | 0.00 | 0.00 | 0.00 | 32 | 1009.0 |
| 20260506020034 | 77 | 205 | 0.0 | 4.0 | 0.00 | 0.00 | 0.00 | 31 | 1009.1 |
| 20260506015519 | 77 | 226 | 1.0 | 4.0 | 0.00 | 0.00 | 0.00 | 30 | 1009.0 |
| 20260506015015 | 77 | 0 | 1.0 | 4.0 | 0.00 | 0.00 | 0.00 | 30 | 1009.0 |
| 20260506014534 | 77 | 0 | 0.0 | 4.0 | 0.00 | 0.00 | 0.00 | 31 | 1009.0 |
| 20260506014015 | 78 | 202 | 2.0 | 4.0 | 0.00 | 0.00 | 0.00 | 31 | 1009.0 |
| 20260506013515 | 78 | 185 | 1.0 | 6.0 | 0.00 | 0.00 | 0.00 | 30 | 1009.0 |
| 20260506013035 | 78 | 188 | 2.0 | 6.0 | 0.00 | 0.00 | 0.00 | 29 | 1009.0 |
| 20260506012515 | 78 | 219 | 2.0 | 6.0 | 0.00 | 0.00 | 0.00 | 29 | 1009.0 |
| 20260506012017 | 78 | 193 | 2.0 | 5.0 | 0.00 | 0.00 | 0.00 | 30 | 1009.0 |
| 20260506011532 | 79 | 167 | 2.0 | 5.0 | 0.00 | 0.00 | 0.00 | 29 | 1008.9 |
| 20260506011017 | 79 | 179 | 2.0 | 5.0 | 0.00 | 0.00 | 0.00 | 30 | 1009.0 |
| 20260506010515 | 79 | 0 | 1.0 | 5.0 | 0.00 | 0.00 | 0.00 | 31 | 1009.0 |
| 20260506010036 | 79 | 208 | 2.0 | 5.0 | 0.00 | 0.00 | 0.00 | 28 | 1009.0 |
| 20260506005516 | 79 | 190 | 2.0 | 5.0 | 0.00 | 0.00 | 0.00 | 29 | 1009.0 |
| 20260506005018 | 79 | 0 | 1.0 | 5.0 | 0.00 | 0.00 | 0.00 | 30 | 1009.1 |
| 20260506004555 | 79 | 178 | 2.0 | 7.0 | 0.00 | 0.00 | 0.00 | 28 | 1009.0 |
| 20260506004016 | 79 | 240 | 3.0 | 7.0 | 0.00 | 0.00 | 0.00 | 27 | 1009.1 |
| 20260506003517 | 79 | 174 | 1.0 | 8.0 | 0.00 | 0.00 | 0.00 | 27 | 1009.2 |
| 20260506003032 | 79 | 0 | 0.0 | 8.0 | 0.00 | 0.00 | 0.00 | 27 | 1009.1 |
| 20260506002515 | 79 | 258 | 4.0 | 7.0 | 0.00 | 0.00 | 0.00 | 29 | 1009.2 |
| 20260506002018 | 79 | 171 | 2.0 | 7.0 | 0.00 | 0.00 | 0.00 | 29 | 1009.1 |
| 20260506001535 | 79 | 160 | 4.0 | 7.0 | 0.00 | 0.00 | 0.00 | 27 | 1009.2 |
| 20260506001016 | 79 | 149 | 4.0 | 7.0 | 0.00 | 0.00 | 0.00 | 26 | 1009.2 |
| 20260506000514 | 79 | 185 | 1.0 | 6.0 | 0.00 | 0.00 | 0.00 | 28 | 1009.4 |
| 20260506000034 | 79 | 223 | 3.0 | 7.0 | 0.00 | 0.00 | 0.00 | 28 | 1009.5 |
| 20260505235516 | 78 | 215 | 3.0 | 9.0 | 0.00 | 0.00 | 0.00 | 28 | 1009.5 |
| 20260505235019 | 78 | 244 | 4.0 | 9.0 | 0.00 | 0.00 | 0.00 | 26 | 1009.5 |
| 20260505234604 | 79 | 171 | 6.0 | 10.0 | 0.00 | 0.00 | 0.00 | 26 | 1009.6 |
| 20260505234015 | 79 | 173 | 2.0 | 10.0 | 0.00 | 0.00 | 0.00 | 26 | 1009.5 |
| 20260505233517 | 79 | 256 | 3.0 | 9.0 | 0.00 | 0.00 | 0.00 | 26 | 1009.7 |
| 20260505233037 | 79 | 176 | 4.0 | 9.0 | 0.00 | 0.00 | 0.00 | 28 | 1009.7 |
| 20260505232516 | 79 | 109 | 2.0 | 6.0 | 0.00 | 0.00 | 0.00 | 30 | 1009.7 |
| 20260505232016 | 78 | 218 | 3.0 | 9.0 | 0.00 | 0.00 | 0.00 | 28 | 1009.7 |
| 20260505231537 | 78 | 0 | 2.0 | 10.0 | 0.00 | 0.00 | 0.00 | 27 | 1009.9 |
| 20260505231016 | 78 | 150 | 3.0 | 10.0 | 0.00 | 0.00 | 0.00 | 28 | 1009.9 |
| 20260505230518 | 78 | 238 | 3.0 | 7.0 | 0.00 | 0.00 | 0.00 | 27 | 1010.0 |
| 20260505230032 | 77 | 168 | 4.0 | 7.0 | 0.00 | 0.00 | 0.00 | 26 | 1010.1 |
| 20260505225516 | 77 | 174 | 2.0 | 9.0 | 0.00 | 0.00 | 0.00 | 27 | 1010.2 |
| 20260505225014 | 78 | 100 | 4.0 | 9.0 | 0.00 | 0.00 | 0.00 | 26 | 1010.2 |
| 20260505224534 | 78 | 164 | 2.0 | 6.0 | 0.00 | 0.00 | 0.00 | 25 | 1010.4 |
| 20260505224016 | 77 | 302 | 2.0 | 14.0 | 0.00 | 0.00 | 0.00 | 27 | 1010.3 |
| 20260505223518 | 77 | 252 | 3.0 | 14.0 | 0.00 | 0.00 | 0.00 | 25 | 1010.6 |
| 20260505223031 | 77 | 323 | 3.0 | 13.0 | 0.00 | 0.00 | 0.00 | 27 | 1010.6 |
| 20260505222515 | 77 | 252 | 2.0 | 11.0 | 0.00 | 0.00 | 0.00 | 28 | 1010.7 |
| 20260505222017 | 77 | 325 | 7.0 | 11.0 | 0.00 | 0.00 | 0.00 | 27 | 1010.8 |
| 20260505221532 | 77 | 300 | 5.0 | 14.0 | 0.00 | 0.00 | 0.00 | 28 | 1010.8 |
| 20260505221016 | 77 | 329 | 8.0 | 15.0 | 0.00 | 0.00 | 0.00 | 29 | 1010.9 |
| 20260505220516 | 77 | 352 | 8.0 | 15.0 | 0.00 | 0.00 | 0.00 | 29 | 1010.8 |
| 20260505220037 | 77 | 296 | 3.0 | 13.0 | 0.00 | 0.00 | 0.00 | 32 | 1010.9 |
| 20260505215518 | 76 | 323 | 8.0 | 13.0 | 0.00 | 0.00 | 0.00 | 31 | 1011.0 |
| 20260505215017 | 77 | 360 | 8.0 | 13.0 | 0.00 | 0.00 | 0.00 | 29 | 1011.0 |
| 20260505214540 | 77 | 350 | 6.0 | 13.0 | 0.00 | 0.00 | 0.00 | 28 | 1011.0 |
| 20260505214016 | 76 | 321 | 6.0 | 13.0 | 0.00 | 0.00 | 0.00 | 27 | 1011.1 |
| 20260505213517 | 76 | 16 | 4.0 | 10.0 | 0.00 | 0.00 | 0.00 | 31 | 1011.2 |
| 20260505213034 | 76 | 55 | 4.0 | 12.0 | 0.00 | 0.00 | 0.00 | 34 | 1011.2 |
| 20260505212517 | 76 | 26 | 6.0 | 12.0 | 0.00 | 0.00 | 0.00 | 29 | 1011.3 |
| 20260505212016 | 76 | 5 | 2.0 | 8.0 | 0.00 | 0.00 | 0.00 | 31 | 1011.4 |
| 20260505211534 | 75 | 201 | 2.0 | 8.0 | 0.00 | 0.00 | 0.00 | 32 | 1011.4 |
| 20260505211016 | 75 | 126 | 2.0 | 8.0 | 0.00 | 0.00 | 0.00 | 32 | 1011.5 |
| 20260505210519 | 75 | 127 | 3.0 | 8.0 | 0.00 | 0.00 | 0.00 | 30 | 1011.7 |
| 20260505210034 | 75 | 147 | 2.0 | 8.0 | 0.00 | 0.00 | 0.00 | 32 | 1011.7 |
| 20260505205519 | 75 | 167 | 3.0 | 8.0 | 0.00 | 0.00 | 0.00 | 35 | 1011.8 |
| 20260505205016 | 75 | 179 | 1.0 | 4.0 | 0.00 | 0.00 | 0.00 | 33 | 1011.9 |